Torna al catalogo

STARLINK-32124

AttivoComunicazioniVLEO
NORAD 60298·PAYLOAD·🇺🇸 United States

Lanciato Jul 28, 2024 da Cape Canaveral Space Force Station

Loading…

Prossimi Passaggi (prossime 24 ore)

TLE

AggiornatoSource: CelesTrak SupGP

Epoca: Sep 15, 2026, 03:31 UTC

1 60298C 24132W   26258.14701389 -.00043887  00000+0 -14111-2 0  2582
2 60298  53.1575 251.1051 0001249  92.1417 343.1836 15.31728988    19

Traccia STARLINK-32124 in tempo reale con AllMySat

Download on the App Store